Tracking 30415 objects as of 14-May-2025
HD Live streaming from Space Station
objects crossing your sky now

THORAD AGENA D DEB

Track THORAD AGENA D DEB now!
10-day predictions


NORAD ID: 42500
Int'l Code: 1970-025RE
Perigee: 1,057.5 km
Apogee: 1,072.6 km
Inclination: 99.5 °
Period: 106.4 minutes
Semi major axis: 7436 km
RCS: Unknown
Launch date: April 8, 1970
Source: United States (US)
Launch site: AIR FORCE WESTERN TEST RANGE (AFWTR)

Note: This is SATELLITE DEBRIS
Your satellite tracking list
Your tracking list is empty




NASA's NSSDC Master Catalog

Two Line Element Set (TLE):
1 42500U 70025RE  25133.43162892  .00000098  00000-0  20800-3 0  9994
2 42500  99.4918   6.4146 0010144 165.5510  13.2593 13.53910881566781
Source of the keplerian elements: AFSPC